{"data":{"norad_id":59375,"intl_designator":"2024-062B","name":"STARLINK-31430","alt_names":[],"object_type":"PAYLOAD","status":"ACTIVE","operator":null,"country":"US","launch_date":"2024-04-02","launch_site_code":"AFWTR","launch_vehicle":null,"mission":null,"orbit_class":"UNKNOWN","rcs_meters":null,"size_class":null,"mass_kg":null,"dimensions":null,"purposes":["comms"],"wikipedia_slug":null,"has_3d_model":false,"image_url":null,"decayed_at":null,"tle_current":{"epoch":"2026-09-21T16:28:32.599488Z","epoch_age_seconds":59729,"freshness":"FRESH","line1":"1 59375U 24062B   26264.68648842  .00002209  00000+0  76514-4 0  9998","line2":"2 59375  53.1606  64.2753 0001235  84.2944 275.8199 15.34395939139691","mean_motion":15.34395939,"eccentricity":0.0001235,"inclination_deg":53.1606,"raan_deg":64.2753,"arg_perigee_deg":84.2944,"mean_anomaly_deg":275.8199,"bstar":7.6514e-5,"rev_number":13969,"period_min":93.848006462952,"perigee_km":461.87046512121,"apogee_km":463.56015564187,"semimajor_km":6840.8523103815,"source":"CELESTRAK","updated_at":"2026-09-22T09:00:48.908014Z"}}}